Time,TemperatureF,DewpointF,PressureIn,WindDirection,WindDirectionDegrees,WindSpeedMPH,WindSpeedGustMPH,Humidity,HourlyPrecipIn,Conditions,Clouds,dailyrainin,SoftwareType,DateUTC
2013-04-25 00:03:00,47.0,45.0,29.71,NW,323,0.0,2.0,91,0.00,,,0.01,,2013-04-25 04:03:00,
2013-04-25 00:13:00,47.0,45.0,29.72,SSW,206,0.0,2.0,91,0.00,,,0.01,,2013-04-25 04:13:00,
2013-04-25 00:23:00,47.0,45.0,29.72,SSW,206,0.0,2.0,91,0.00,,,0.01,,2013-04-25 04:23:00,
2013-04-25 00:33:00,49.0,46.0,29.72,SSW,206,0.0,1.0,90,0.00,,,0.01,,2013-04-25 04:33:00,
2013-04-25 00:43:00,49.0,46.0,29.72,SSW,206,0.0,1.0,90,0.00,,,0.01,,2013-04-25 04:43:00,
2013-04-25 00:52:00,51.0,47.0,29.72,SSW,206,0.0,1.0,86,0.00,,,0.01,,2013-04-25 04:52:00,
2013-04-25 01:02:00,52.0,48.0,29.70,SSW,206,0.0,1.0,85,0.00,,,0.01,,2013-04-25 05:02:00,
2013-04-25 01:12:00,52.0,48.0,29.70,SSW,206,0.0,1.0,85,0.00,,,0.01,,2013-04-25 05:12:00,
2013-04-25 01:22:00,52.0,48.0,29.71,SSW,196,0.0,2.0,87,0.00,,,0.01,,2013-04-25 05:22:00,
2013-04-25 01:32:00,54.0,49.0,29.72,WSW,246,1.0,4.0,83,0.00,,,0.01,,2013-04-25 05:32:00,
2013-04-25 01:42:00,54.0,49.0,29.72,WSW,246,1.0,4.0,83,0.00,,,0.01,,2013-04-25 05:42:00,
2013-04-25 01:52:00,54.0,49.0,29.72,WNW,292,327.0,327.0,82,-99.99,,,-99.99,,2013-04-25 05:52:00,
2013-04-25 02:02:00,53.0,49.0,29.72,WSW,255,0.0,1.0,85,0.01,,,0.01,,2013-04-25 06:02:00,
2013-04-25 02:12:00,53.0,49.0,29.72,WSW,255,0.0,1.0,85,0.01,,,0.01,,2013-04-25 06:12:00,
2013-04-25 02:22:00,53.0,50.0,29.72,WSW,254,0.0,3.0,88,0.01,,,0.01,,2013-04-25 06:22:00,
2013-04-25 02:32:00,53.0,50.0,29.72,WSW,254,0.0,0.0,88,0.01,,,0.01,,2013-04-25 06:32:00,
2013-04-25 02:42:00,53.0,50.0,29.72,WSW,254,0.0,0.0,88,0.01,,,0.01,,2013-04-25 06:42:00,
2013-04-25 02:52:00,54.0,50.0,29.74,WNW,287,1.0,3.0,85,0.01,,,0.01,,2013-04-25 06:52:00,
2013-04-25 03:02:00,56.0,51.0,29.75,SW,218,1.0,4.0,82,0.00,,,0.01,,2013-04-25 07:02:00,
2013-04-25 03:12:00,56.0,50.0,29.74,SSW,202,3.0,6.0,81,0.00,,,0.01,,2013-04-25 07:12:00,
2013-04-25 03:22:00,56.0,50.0,29.74,SSW,202,3.0,6.0,81,0.00,,,0.01,,2013-04-25 07:22:00,
2013-04-25 03:32:00,56.0,50.0,29.74,SSW,205,2.0,4.0,81,0.00,,,0.01,,2013-04-25 07:32:00,
2013-04-25 03:42:00,56.0,50.0,29.74,SSW,205,2.0,4.0,81,0.00,,,0.01,,2013-04-25 07:42:00,
2013-04-25 03:52:00,56.0,51.0,29.73,West,263,327.0,327.0,82,-99.99,,,-99.99,,2013-04-25 07:52:00,
2013-04-25 04:02:00,56.0,51.0,29.74,SW,230,2.0,7.0,82,0.00,,,0.01,,2013-04-25 08:02:00,
2013-04-25 04:11:00,56.0,51.0,29.74,SW,230,2.0,7.0,82,0.00,,,0.01,,2013-04-25 08:11:00,
2013-04-25 04:21:00,56.0,50.0,29.75,SW,215,3.0,9.0,81,0.00,,,0.01,,2013-04-25 08:21:00,
2013-04-25 04:32:00,56.0,49.0,29.77,SW,229,2.0,6.0,78,0.00,,,0.01,,2013-04-25 08:32:00,
2013-04-25 04:42:00,56.0,49.0,29.77,SW,229,2.0,6.0,78,0.00,,,0.01,,2013-04-25 08:42:00,
2013-04-25 04:52:00,56.0,47.0,29.78,SW,236,5.0,13.0,73,0.00,,,0.01,,2013-04-25 08:52:00,
2013-04-25 05:01:00,55.0,45.0,29.80,SW,221,4.0,13.0,70,0.00,,,0.01,,2013-04-25 09:01:00,
2013-04-25 05:11:00,55.0,45.0,29.80,SW,221,4.0,13.0,70,0.00,,,0.01,,2013-04-25 09:11:00,
2013-04-25 05:21:00,54.0,45.0,29.80,SW,229,3.0,11.0,71,0.00,,,0.01,,2013-04-25 09:21:00,
2013-04-25 05:33:00,53.0,44.0,29.80,NNE,23,3.0,18.0,71,0.00,,,0.01,,2013-04-25 09:33:00,
2013-04-25 05:42:00,53.0,44.0,29.80,NNE,23,3.0,18.0,71,0.00,,,0.01,,2013-04-25 09:42:00,
2013-04-25 05:53:00,52.0,39.0,29.82,WNW,293,7.0,18.0,60,0.00,,,0.01,,2013-04-25 09:53:00,
2013-04-25 06:02:00,51.0,36.0,29.84,SSE,151,5.0,17.0,57,0.00,,,0.01,,2013-04-25 10:02:00,
2013-04-25 06:12:00,51.0,36.0,29.84,SSE,151,5.0,17.0,57,0.00,,,0.01,,2013-04-25 10:12:00,
2013-04-25 06:22:00,49.0,35.0,29.86,SW,232,5.0,14.0,58,0.00,,,0.01,,2013-04-25 10:22:00,
2013-04-25 06:32:00,48.0,34.0,29.87,NNW,342,7.0,13.0,59,0.00,,,0.01,,2013-04-25 10:32:00,
2013-04-25 06:42:00,48.0,34.0,29.87,NNW,342,7.0,13.0,59,0.00,,,0.01,,2013-04-25 10:42:00,
2013-04-25 06:53:00,48.0,35.0,29.89,West,262,2.0,13.0,60,0.00,,,0.01,,2013-04-25 10:53:00,
2013-04-25 07:02:00,48.0,35.0,29.91,NW,319,4.0,11.0,60,0.00,,,0.01,,2013-04-25 11:02:00,
2013-04-25 07:12:00,48.0,35.0,29.91,NW,319,4.0,11.0,60,0.00,,,0.01,,2013-04-25 11:12:00,
2013-04-25 07:22:00,48.0,35.0,29.91,SW,236,327.0,327.0,61,-99.99,,,-99.99,,2013-04-25 11:22:00,
2013-04-25 07:32:00,48.0,35.0,29.93,SW,221,4.0,9.0,61,0.00,,,0.01,,2013-04-25 11:32:00,
2013-04-25 07:42:00,48.0,35.0,29.93,SW,221,4.0,9.0,61,0.00,,,0.01,,2013-04-25 11:42:00,
2013-04-25 07:51:00,48.0,35.0,29.93,West,277,4.0,9.0,60,0.00,,,0.01,,2013-04-25 11:51:00,
2013-04-25 08:01:00,49.0,35.0,29.93,WSW,254,3.0,8.0,58,0.00,,,0.01,,2013-04-25 12:01:00,
2013-04-25 08:12:00,49.0,35.0,29.93,WSW,254,3.0,8.0,58,0.00,,,0.01,,2013-04-25 12:12:00,
2013-04-25 08:21:00,50.0,34.0,29.94,SW,216,3.0,11.0,55,0.00,,,0.01,,2013-04-25 12:21:00,
2013-04-25 08:32:00,50.0,34.0,29.95,West,281,4.0,12.0,54,0.00,,,0.01,,2013-04-25 12:32:00,
2013-04-25 08:42:00,50.0,34.0,29.95,West,281,4.0,12.0,54,0.00,,,0.01,,2013-04-25 12:42:00,
2013-04-25 08:52:00,51.0,34.0,29.95,North,5,5.0,10.0,53,0.00,,,0.01,,2013-04-25 12:52:00,
2013-04-25 09:02:00,50.0,33.0,29.96,WSW,239,5.0,12.0,52,0.00,,,0.01,,2013-04-25 13:02:00,
2013-04-25 09:11:00,50.0,33.0,29.96,WSW,239,5.0,12.0,52,0.00,,,0.01,,2013-04-25 13:11:00,
2013-04-25 09:21:00,51.0,34.0,29.97,WSW,250,2.0,17.0,52,0.00,,,0.01,,2013-04-25 13:21:00,
2013-04-25 09:32:00,51.0,32.0,29.98,SSE,155,4.0,15.0,48,0.00,,,0.01,,2013-04-25 13:32:00,
2013-04-25 09:42:00,51.0,32.0,29.98,SSE,155,4.0,15.0,48,0.00,,,0.01,,2013-04-25 13:42:00,
2013-04-25 09:53:00,52.0,32.0,30.00,WSW,258,6.0,15.0,47,0.00,,,0.01,,2013-04-25 13:53:00,
2013-04-25 10:02:00,52.0,32.0,30.00,North,355,7.0,12.0,47,0.00,,,0.01,,2013-04-25 14:02:00,
2013-04-25 10:11:00,52.0,32.0,30.00,North,355,7.0,12.0,47,0.00,,,0.01,,2013-04-25 14:11:00,
2013-04-25 10:21:00,53.0,33.0,30.01,West,259,4.0,9.0,46,0.00,,,0.01,,2013-04-25 14:21:00,
2013-04-25 10:32:00,54.0,33.0,30.01,SW,223,4.0,11.0,45,0.00,,,0.01,,2013-04-25 14:32:00,
2013-04-25 10:42:00,54.0,33.0,30.01,SW,223,4.0,11.0,45,0.00,,,0.01,,2013-04-25 14:42:00,
2013-04-25 10:51:00,55.0,33.0,30.02,NW,309,4.0,13.0,43,0.00,,,0.01,,2013-04-25 14:51:00,
2013-04-25 11:02:00,55.0,32.0,30.02,SW,233,6.0,11.0,41,0.00,,,0.01,,2013-04-25 15:02:00,
2013-04-25 11:11:00,55.0,32.0,30.02,SW,233,6.0,11.0,41,0.00,,,0.01,,2013-04-25 15:11:00,
2013-04-25 11:21:00,55.0,33.0,30.03,SSW,200,4.0,16.0,44,0.00,,,0.01,,2013-04-25 15:21:00,
2013-04-25 11:33:00,55.0,32.0,30.02,ESE,106,3.0,15.0,42,0.00,,,0.01,,2013-04-25 15:33:00,
2013-04-25 11:42:00,55.0,32.0,30.02,ESE,106,3.0,15.0,42,0.00,,,0.01,,2013-04-25 15:42:00,
2013-04-25 11:53:00,56.0,31.0,30.03,NW,322,3.0,11.0,39,0.00,,,0.01,,2013-04-25 15:53:00,
2013-04-25 12:02:00,55.0,32.0,30.03,NW,313,5.0,10.0,41,0.00,,,0.01,,2013-04-25 16:02:00,
2013-04-25 12:13:00,55.0,32.0,30.03,NW,313,5.0,10.0,41,0.00,,,0.01,,2013-04-25 16:13:00,
2013-04-25 12:24:00,57.0,32.0,30.04,NNE,14,5.0,13.0,38,0.00,,,0.01,,2013-04-25 16:24:00,
2013-04-25 12:32:00,56.0,29.0,30.04,WNW,288,4.0,16.0,36,0.00,,,0.01,,2013-04-25 16:32:00,
2013-04-25 12:43:00,56.0,29.0,30.04,WNW,288,4.0,16.0,36,0.00,,,0.01,,2013-04-25 16:43:00,
2013-04-25 12:52:00,58.0,31.0,30.04,West,261,3.0,9.0,36,0.00,,,0.01,,2013-04-25 16:52:00,
2013-04-25 13:02:00,58.0,32.0,30.05,NW,309,3.0,9.0,37,0.00,,,0.01,,2013-04-25 17:02:00,
2013-04-25 13:11:00,58.0,32.0,30.05,NW,309,3.0,9.0,37,0.00,,,0.01,,2013-04-25 17:11:00,
2013-04-25 13:22:00,58.0,31.0,30.05,West,279,4.0,8.0,36,0.00,,,0.01,,2013-04-25 17:22:00,
2013-04-25 13:32:00,58.0,32.0,30.06,SSW,193,4.0,13.0,37,0.00,,,0.01,,2013-04-25 17:32:00,
2013-04-25 13:42:00,58.0,32.0,30.06,SSW,193,4.0,13.0,37,0.00,,,0.01,,2013-04-25 17:42:00,
2013-04-25 13:53:00,58.0,33.0,30.05,SW,227,3.0,8.0,38,0.00,,,0.01,,2013-04-25 17:53:00,
2013-04-25 14:01:00,58.0,29.0,30.06,NNW,336,3.0,10.0,33,0.00,,,0.01,,2013-04-25 18:01:00,
2013-04-25 14:11:00,58.0,29.0,30.06,NNW,336,3.0,10.0,33,0.00,,,0.01,,2013-04-25 18:11:00,
2013-04-25 14:22:00,59.0,30.0,30.06,West,274,3.0,11.0,33,0.00,,,0.01,,2013-04-25 18:22:00,
2013-04-25 14:32:00,60.0,29.0,30.06,NW,315,2.0,8.0,31,0.00,,,0.01,,2013-04-25 18:32:00,
2013-04-25 14:42:00,60.0,29.0,30.06,NW,315,2.0,8.0,31,0.00,,,0.01,,2013-04-25 18:42:00,
2013-04-25 14:53:00,60.0,32.0,30.06,West,279,3.0,10.0,34,0.00,,,0.01,,2013-04-25 18:53:00,
2013-04-25 15:01:00,60.0,28.0,30.06,WNW,286,5.0,9.0,29,0.00,,,0.01,,2013-04-25 19:01:00,
2013-04-25 15:12:00,60.0,28.0,30.06,WNW,286,5.0,9.0,29,0.00,,,0.01,,2013-04-25 19:12:00,
2013-04-25 15:21:00,59.0,28.0,30.06,West,273,3.0,9.0,31,0.00,,,0.01,,2013-04-25 19:21:00,
2013-04-25 15:31:00,60.0,33.0,30.06,NW,306,4.0,9.0,36,0.00,,,0.01,,2013-04-25 19:31:00,
2013-04-25 15:42:00,60.0,33.0,30.06,NW,306,4.0,9.0,36,0.00,,,0.01,,2013-04-25 19:42:00,
2013-04-25 15:52:00,60.0,28.0,30.06,WSW,240,4.0,8.0,29,0.00,,,0.01,,2013-04-25 19:52:00,
2013-04-25 16:02:00,60.0,28.0,30.06,SE,130,2.0,6.0,30,0.00,,,0.01,,2013-04-25 20:02:00,
2013-04-25 16:11:00,60.0,28.0,30.06,SE,130,2.0,6.0,30,0.00,,,0.01,,2013-04-25 20:11:00,
2013-04-25 16:22:00,60.0,27.0,30.06,NW,323,4.0,7.0,28,0.00,,,0.01,,2013-04-25 20:22:00,
2013-04-25 16:32:00,60.0,26.0,30.07,NE,43,2.0,8.0,27,0.00,,,0.01,,2013-04-25 20:32:00,
2013-04-25 16:42:00,60.0,26.0,30.07,NE,43,2.0,8.0,27,0.00,,,0.01,,2013-04-25 20:42:00,
2013-04-25 16:52:00,60.0,27.0,30.07,SW,229,2.0,6.0,28,0.00,,,0.01,,2013-04-25 20:52:00,
2013-04-25 17:01:00,60.0,28.0,30.08,West,261,4.0,7.0,29,0.00,,,0.01,,2013-04-25 21:01:00,
2013-04-25 17:11:00,60.0,28.0,30.08,West,261,4.0,7.0,29,0.00,,,0.01,,2013-04-25 21:11:00,
2013-04-25 17:22:00,59.0,27.0,30.09,WSW,257,3.0,5.0,29,0.00,,,0.01,,2013-04-25 21:22:00,
2013-04-25 17:33:00,59.0,25.0,30.09,WSW,253,2.0,8.0,27,0.00,,,0.01,,2013-04-25 21:33:00,
2013-04-25 17:42:00,59.0,25.0,30.09,WSW,253,2.0,8.0,27,0.00,,,0.01,,2013-04-25 21:42:00,
2013-04-25 17:53:00,59.0,28.0,30.10,NNE,28,2.0,8.0,30,0.00,,,0.01,,2013-04-25 21:53:00,
2013-04-25 18:03:00,58.0,25.0,30.11,WNW,298,2.0,6.0,28,0.00,,,0.01,,2013-04-25 22:03:00,
2013-04-25 18:12:00,58.0,25.0,30.11,WNW,298,2.0,6.0,28,0.00,,,0.01,,2013-04-25 22:12:00,
2013-04-25 18:22:00,58.0,26.0,30.11,NW,319,3.0,7.0,29,0.00,,,0.01,,2013-04-25 22:22:00,
2013-04-25 18:33:00,57.0,24.0,30.12,NW,325,2.0,9.0,28,0.00,,,0.01,,2013-04-25 22:33:00,
2013-04-25 18:42:00,57.0,24.0,30.12,NW,325,2.0,9.0,28,0.00,,,0.01,,2013-04-25 22:42:00,
2013-04-25 18:52:00,56.0,25.0,30.12,NW,311,2.0,6.0,30,0.00,,,0.01,,2013-04-25 22:52:00,
2013-04-25 19:02:00,55.0,25.0,30.14,NW,307,1.0,8.0,31,0.00,,,0.01,,2013-04-25 23:02:00,
2013-04-25 19:12:00,55.0,25.0,30.14,NW,307,1.0,8.0,31,0.00,,,0.01,,2013-04-25 23:12:00,
2013-04-25 19:22:00,54.0,26.0,30.14,WNW,286,0.0,5.0,33,0.00,,,0.01,,2013-04-25 23:22:00,
2013-04-25 19:32:00,52.0,24.0,30.15,SW,224,0.0,2.0,33,0.00,,,0.01,,2013-04-25 23:32:00,
2013-04-25 19:42:00,52.0,24.0,30.15,SW,224,0.0,2.0,33,0.00,,,0.01,,2013-04-25 23:42:00,
2013-04-25 19:52:00,49.0,27.0,30.16,West,259,0.0,1.0,42,0.00,,,0.01,,2013-04-25 23:52:00,
2013-04-25 20:01:00,46.0,27.0,30.17,West,259,0.0,0.0,48,0.00,,,0.01,,2013-04-26 00:01:00,
2013-04-25 20:11:00,46.0,27.0,30.17,West,259,0.0,0.0,48,0.00,,,0.01,,2013-04-26 00:11:00,
2013-04-25 20:21:00,45.0,28.0,30.17,West,259,0.0,0.0,51,0.00,,,0.01,,2013-04-26 00:21:00,
2013-04-25 20:32:00,43.0,29.0,30.19,West,259,0.0,0.0,57,0.00,,,0.01,,2013-04-26 00:32:00,
2013-04-25 20:41:00,43.0,29.0,30.19,West,259,0.0,0.0,57,0.00,,,0.01,,2013-04-26 00:41:00,
2013-04-25 20:51:00,41.0,29.0,30.19,West,259,0.0,1.0,61,0.00,,,0.01,,2013-04-26 00:51:00,
2013-04-25 21:01:00,40.0,30.0,30.20,West,259,0.0,0.0,68,0.00,,,0.01,,2013-04-26 01:01:00,
2013-04-25 21:11:00,40.0,30.0,30.20,West,259,0.0,0.0,68,0.00,,,0.01,,2013-04-26 01:11:00,
2013-04-25 21:21:00,39.0,30.0,30.22,West,259,0.0,0.0,70,0.00,,,0.01,,2013-04-26 01:21:00,
2013-04-25 21:32:00,38.0,29.0,30.22,West,259,0.0,1.0,71,0.00,,,0.01,,2013-04-26 01:32:00,
2013-04-25 21:42:00,38.0,29.0,30.22,West,259,0.0,1.0,71,0.00,,,0.01,,2013-04-26 01:42:00,
2013-04-25 21:52:00,37.0,29.0,30.23,West,259,0.0,0.0,72,0.00,,,0.01,,2013-04-26 01:52:00,
2013-04-25 22:02:00,35.0,28.0,30.24,West,259,0.0,0.0,75,0.00,,,0.01,,2013-04-26 02:02:00,
2013-04-25 22:11:00,35.0,28.0,30.24,West,259,0.0,0.0,75,0.00,,,0.01,,2013-04-26 02:11:00,
2013-04-25 22:21:00,35.0,29.0,30.24,West,259,0.0,0.0,79,0.00,,,0.01,,2013-04-26 02:21:00,
2013-04-25 22:32:00,34.0,28.0,30.24,West,259,0.0,0.0,79,0.00,,,0.01,,2013-04-26 02:32:00,
2013-04-25 22:42:00,34.0,28.0,30.24,West,259,0.0,0.0,79,0.00,,,0.01,,2013-04-26 02:42:00,
2013-04-25 22:52:00,34.0,29.0,30.23,West,259,327.0,327.0,81,-99.99,,,-99.99,,2013-04-26 02:52:00,
2013-04-25 23:01:00,33.0,29.0,30.24,West,259,0.0,0.0,84,0.00,,,0.01,,2013-04-26 03:01:00,
2013-04-25 23:11:00,33.0,29.0,30.24,West,259,0.0,0.0,84,0.00,,,0.01,,2013-04-26 03:11:00,
2013-04-25 23:22:00,32.0,28.0,30.25,West,259,0.0,0.0,84,0.00,,,0.01,,2013-04-26 03:22:00,
2013-04-25 23:33:00,32.0,28.0,30.26,West,259,0.0,0.0,85,0.00,,,0.01,,2013-04-26 03:33:00,
2013-04-25 23:43:00,32.0,28.0,30.26,West,259,0.0,0.0,85,0.00,,,0.01,,2013-04-26 03:43:00,
2013-04-25 23:53:00,32.0,28.0,30.26,West,259,0.0,0.0,86,0.00,,,0.01,,2013-04-26 03:53:00,